FW3025 Weather Reports


time (UTC)temp
F
wind
direction
speed
knots
gust
knots
rain 1hr
in
rain 24hr
in
rain mn
in
humidity
%
barometer
mb
20260509201546 50 247 0.0 6.1 0.00 0.37 0.09 95 956.5
20260509200048 50 179 0.0 2.6 0.01 0.37 0.09 94 956.6
20260509194554 50 137 0.0 3.5 0.02 0.37 0.09 94 956.8
20260509193049 50 234 0.0 2.6 0.02 0.37 0.09 94 956.9
20260509191548 50 209 0.0 1.7 0.02 0.37 0.09 94 956.9
20260509190047 50 221 0.0 2.6 0.02 0.36 0.08 94 957.0
20260509184538 50 215 0.0 1.7 0.01 0.35 0.07 94 957.1
20260509183058 50 204 0.9 2.6 0.01 0.35 0.07 94 957.1
20260509181537 50 169 0.0 4.3 0.01 0.35 0.07 94 957.1
20260509180037 50 159 0.9 2.6 0.00 0.34 0.06 94 957.0
20260509174540 50 136 0.0 1.7 0.00 0.34 0.06 94 956.9
20260509173026 49 163 0.0 1.7 0.00 0.34 0.06 95 957.0
20260509171531 49 164 0.0 1.7 0.01 0.34 0.06 94 956.8
20260509170022 49 164 0.0 1.7 0.01 0.34 0.06 94 956.9
20260509164534 49 150 0.0 4.3 0.01 0.34 0.06 94 957.0
20260509163042 49 223 0.0 3.5 0.01 0.34 0.06 94 957.1
20260509161539 49 157 0.9 4.3 0.01 0.33 0.05 94 957.1
20260509160027 49 175 0.0 1.7 0.01 0.33 0.05 94 957.2
20260509154603 49 178 0.0 3.5 0.02 0.33 0.05 94 957.5
20260509153159 49 104 0.0 0.0 0.03 0.33 0.05 94 957.5
20260509151558 49 125 0.0 0.0 0.03 0.32 0.04 94 957.7
20260509150051 48 172 0.0 0.0 0.04 0.32 0.04 94 957.8
20260509144507 48 172 0.0 0.0 0.04 0.31 0.03 94 958.0
20260509143008 48 172 0.0 0.0 0.04 0.30 0.02 94 958.1
20260509141503 47 172 0.0 0.0 0.04 0.28 0.01 94 958.1
20260509140107 47 172 0.0 0.0 0.05 0.28 0.00 94 958.0
20260509134504 47 172 0.0 0.0 0.06 0.27 0.27 94 958.0
20260509133005 47 172 0.0 0.0 0.06 0.26 0.26 93 958.2
20260509131504 47 172 0.0 0.0 0.08 0.25 0.25 93 958.0
20260509130004 47 172 0.0 0.0 0.08 0.23 0.23 93 958.2
20260509124509 46 172 0.0 0.0 0.08 0.22 0.22 93 958.4
20260509123009 46 172 0.0 0.0 0.07 0.20 0.20 93 958.5
20260509121512 46 172 0.0 0.0 0.06 0.17 0.17 93 958.6
20260509120007 46 172 0.0 0.0 0.06 0.15 0.15 93 958.6
20260509114540 46 172 0.0 0.0 0.07 0.14 0.14 93 958.6
20260509113040 46 172 0.0 0.0 0.08 0.13 0.13 92 958.5
20260509111540 45 172 0.0 0.0 0.07 0.11 0.11 92 958.4
20260509110039 45 173 0.0 0.0 0.07 0.10 0.10 92 958.4
20260509104555 45 173 0.0 0.0 0.05 0.08 0.08 92 958.3
20260509103102 45 148 0.0 0.0 0.03 0.06 0.06 92 958.3
20260509101554 45 103 0.0 0.0 0.01 0.04 0.04 92 958.3
20260509100058 45 103 0.0 1.7 0.01 0.03 0.03 91 958.1
20260509094546 45 103 0.0 0.0 0.02 0.03 0.03 91 958.3
20260509093044 45 103 0.0 0.0 0.02 0.03 0.03 91 958.2
20260509091543 45 103 0.0 0.0 0.02 0.03 0.03 91 958.3
20260509090049 45 103 0.0 0.0 0.01 0.02 0.02 91 958.3
20260509084540 44 103 0.0 0.0 0.01 0.02 0.02 90 958.4
20260509083037 44 103 0.0 0.9 0.00 0.01 0.01 90 958.3
20260509081537 44 103 0.0 0.0 0.00 0.01 0.01 89 958.5
20260509080040 44 103 0.0 1.7 0.00 0.01 0.01 89 958.7
20260509074524 44 103 0.0 1.7 0.00 0.01 0.01 88 958.8
20260509073023 44 65 0.0 0.9 0.01 0.01 0.01 88 958.8
20260509071522 44 65 0.0 0.0 0.01 0.01 0.01 86 958.6
20260509070021 44 65 0.0 0.0 0.01 0.01 0.01 85 958.7
20260509064523 45 65 0.0 0.0 0.01 0.01 0.01 84 958.8
20260509063026 45 65 0.0 0.0 0.00 0.00 0.00 82 959.0
20260509061527 45 65 0.0 0.0 0.00 0.00 0.00 80 959.3
20260509060029 45 65 0.0 0.0 0.00 0.00 0.00 79 959.4
20260509054526 46 65 0.0 0.0 0.00 0.00 0.00 78 959.4
20260509053026 46 65 0.0 0.0 0.00 0.00 0.00 77 959.5
20260509051525 46 65 0.0 0.0 0.00 0.00 0.00 77 959.4
20260509050041 46 65 0.0 0.0 0.00 0.00 0.00 76 959.3
20260509044524 46 65 0.0 0.0 0.00 0.00 0.00 75 959.4
20260509043024 46 65 0.0 0.0 0.00 0.00 0.00 74 959.5
20260509041523 46 65 0.0 0.0 0.00 0.00 0.00 74 959.8
20260509040022 46 65 0.0 0.0 0.00 0.00 0.00 73 959.7
20260509034520 46 65 0.0 0.0 0.00 0.00 0.00 72 959.7
20260509033021 46 65 0.0 0.0 0.00 0.00 0.00 71 959.7
20260509031530 47 65 0.0 0.0 0.00 0.00 0.00 69 959.5
20260509030024 47 65 0.0 0.0 0.00 0.00 0.00 66 959.8
20260509024542 47 65 0.0 0.0 0.00 0.00 0.00 63 960.0
20260509023041 48 65 0.0 0.0 0.00 0.00 0.00 62 959.8
20260509021541 48 65 0.0 0.0 0.00 0.00 0.00 61 959.8
20260509020039 48 65 0.0 0.0 0.00 0.00 0.00 61 960.0
20260509014526 48 65 0.0 0.0 0.00 0.00 0.00 61 959.9
20260509013030 49 334 0.0 0.0 0.00 0.00 0.00 60 959.7
20260509011525 49 334 0.0 0.0 0.00 0.00 0.00 59 959.6
20260509010027 50 334 0.0 0.9 0.00 0.00 0.00 59 959.5
20260509004530 50 334 0.0 0.0 0.00 0.00 0.00 58 959.1
20260509003024 51 334 0.0 0.0 0.00 0.00 0.00 54 959.0
20260509001532 51 334 0.0 0.0 0.00 0.00 0.00 54 959.0
20260509000036 52 334 0.0 0.0 0.00 0.00 0.00 53 958.8
20260508234531 52 334 0.0 0.0 0.00 0.00 0.00 55 958.7
20260508233031 53 334 0.0 0.0 0.00 0.00 0.00 53 958.6
20260508231508 53 334 0.0 0.0 0.00 0.00 0.00 52 958.5
20260508230006 53 334 0.0 1.7 0.00 0.00 0.00 52 958.4
20260508224507 54 334 0.0 1.7 0.00 0.00 0.00 49 958.6
20260508223016 55 330 0.0 1.7 0.00 0.00 0.00 49 958.5
20260508221552 55 343 0.0 2.6 0.00 0.00 0.00 48 958.3
20260508220052 55 272 0.0 2.6 0.00 0.00 0.00 48 958.7
20260508214608 55 236 0.0 2.6 0.00 0.00 0.00 49 958.6
20260508213101 55 198 0.9 4.3 0.00 0.00 0.00 47 958.4
20260508211515 55 202 0.0 2.6 0.00 0.00 0.00 50 958.6
20260508210013 55 55 0.0 6.1 0.00 0.00 0.00 47 958.7
20260508204509 56 278 1.7 6.1 0.00 0.00 0.00 47 958.8
20260508203011 55 229 3.5 7.0 0.00 0.00 0.00 47 959.1